RH
57 56 59 69 79 85 88 86 88 92 91 92 91 92 90 86 85 85 88 87 86 87 83 83 78 77 80 80 78 76 74 68 65 65 66 66 62 60 59 57 55 56 57 54 51 49 50 49 47 45 45 45 45 44 41 39 37 36 35 33 31 31 31 33 35 38 39 39 38 39 43 46 46 46 47 47 47 47 46 42 41 44 45 46 48 48 48 49 52 53 53 53 53 52 51 50 49
62 64 69 79 84 86 88 87 90 94 95 93 89 90 88 84 85 85 87 88 88 84 81 81 78 78 76 75 74 73 74 70 64 63 62 62 61 58 56 54 51 53 55 52 49 48 48 46 45 44 43 43 43 44 41 40 39 38 35 32 31 32 35 38 40 41 41 39 39 41 45 46 46 47 48 48 48 49 48 45 45 45 46 47 48 49 49 49 51 53 53 52 52 51 49 47 45
73 71 74 82 85 86 86 87 92 93 94 92 88 87 86 87 88 86 87 87 87 84 81 79 78 78 73 73 74 73 74 73 66 60 61 62 59 57 55 53 50 51 52 49 46 45 46 44 42 42 42 42 43 44 44 43 42 38 34 32 33 36 40 41 42 41 39 39 40 42 45 46 46 47 48 49 49 50 49 49 48 48 49 49 48 48 49 50 52 53 54 53 52 50 48 46 41
78 76 76 81 83 84 85 88 92 93 93 92 89 87 84 88 90 87 87 87 87 83 80 79 77 76 70 71 72 72 72 74 69 59 62 61 55 54 55 54 52 51 49 47 44 42 42 42 41 41 41 42 43 44 45 45 42 36 34 36 38 40 41 41 40 40 40 41 43 44 45 46 46 48 48 48 50 51 51 50 49 50 51 51 49 49 50 52 53 54 55 54 51 50 48 45 38
80 80 79 78 82 86 88 89 92 94 94 91 90 88 86 89 87 85 86 87 87 82 79 76 74 72 69 68 68 70 70 70 67 60 60 59 53 52 53 53 52 49 45 43 43 41 40 39 38 38 38 39 42 43 45 42 37 34 36 39 40 40 40 39 40 41 42 43 44 45 46 47 48 48 48 49 51 52 53 52 51 51 52 52 50 51 52 53 54 55 56 54 52 49 48 44 40
81 81 79 78 83 87 89 90 91 94 92 88 88 86 88 91 85 85 87 84 85 82 78 73 70 69 67 68 68 67 67 65 65 62 59 57 55 49 47 48 46 43 40 38 39 39 37 35 34 34 34 36 40 42 42 37 33 35 38 40 40 39 40 40 42 43 44 44 45 46 46 47 48 48 48 49 50 52 54 54 53 51 52 53 53 54 54 54 54 55 55 54 51 48 46 42 40
83 84 82 82 86 87 88 91 91 95 91 85 86 85 89 93 86 86 87 83 85 85 78 73 69 67 67 66 65 64 64 63 64 62 57 56 53 46 43 44 41 37 34 34 35 35 33 31 31 31 33 36 39 39 35 32 35 38 39 40 40 41 42 43 44 44 45 45 45 46 46 46 47 47 47 48 48 49 51 54 54 53 54 55 55 56 54 54 54 55 55 54 52 48 43 40 41
86 87 87 87 90 91 89 90 91 94 90 84 86 86 88 91 88 86 86 86 86 86 79 72 68 65 66 64 62 63 64 64 63 59 57 55 52 46 43 43 41 36 34 33 33 33 31 30 30 31 34 35 35 32 30 33 38 40 41 42 42 43 45 45 44 44 44 44 44 44 45 45 46 46 46 45 45 46 49 52 54 54 55 55 56 56 55 54 55 55 55 54 52 47 42 39 42
86 89 89 89 93 94 88 88 92 91 87 85 85 86 87 87 87 85 86 89 87 83 76 71 67 65 67 65 63 65 65 64 62 60 58 55 52 49 45 44 41 36 34 32 33 32 31 31 31 30 29 28 27 28 32 37 41 43 43 43 44 44 44 44 44 44 44 44 44 44 44 45 46 46 46 44 44 45 47 51 53 54 54 54 55 55 54 53 54 54 55 54 51 46 42 39 43
86 89 90 90 92 93 90 89 90 88 87 85 84 86 86 86 86 85 87 88 87 82 73 70 66 65 66 64 65 66 65 64 62 61 59 55 52 50 47 46 41 35 32 31 32 32 32 31 28 25 23 24 28 34 37 40 43 45 44 44 45 44 44 44 44 45 44 45 45 44 44 44 45 45 46 45 45 45 47 49 52 53 53 53 54 54 53 52 52 52 54 52 46 40 38 38 43
85 87 88 90 90 91 91 89 87 85 85 84 86 87 84 85 85 85 87 85 85 80 73 70 65 64 65 64 67 66 64 63 61 61 59 58 55 52 50 46 40 34 30 30 30 30 29 27 23 22 23 27 34 40 42 43 44 44 45 46 44 43 43 43 43 44 43 43 43 43 43 43 44 44 45 44 43 44 45 47 52 54 54 53 54 54 53 51 51 53 52 46 38 32 32 34 40
84 89 88 91 91 91 91 90 86 82 84 86 87 86 84 85 85 85 85 83 82 78 73 70 65 64 64 64 66 64 63 62 60 60 60 59 56 53 50 43 38 34 31 29 27 25 23 23 24 26 27 33 40 43 44 44 44 44 45 45 44 42 42 42 42 42 42 41 41 40 41 42 43 44 44 42 42 42 42 45 49 54 54 53 55 55 54 52 52 53 49 42 36 30 30 31 36
81 89 89 91 90 90 90 90 88 84 85 87 85 84 83 83 85 85 82 81 81 76 72 69 66 65 64 64 65 63 61 60 59 59 58 57 54 53 49 41 37 34 31 26 23 23 23 25 28 30 30 37 44 45 44 43 44 45 45 44 42 41 41 42 41 42 42 40 39 38 39 41 41 41 40 40 41 42 44 46 50 53 53 52 55 55 53 53 53 53 49 44 40 33 29 31 34
74 84 87 88 86 88 87 89 90 87 87 86 85 84 82 81 85 86 81 82 83 77 72 68 65 64 63 61 61 61 61 59 59 58 56 54 52 51 48 40 35 31 29 25 23 23 26 28 29 30 31 37 44 45 43 42 44 46 44 44 42 41 41 41 41 42 42 40 38 38 38 38 37 36 35 36 38 40 44 48 51 51 51 52 54 54 53 53 53 52 50 48 45 38 33 33 37
68 76 82 84 84 85 84 85 86 85 86 85 87 84 82 84 85 85 84 86 84 77 73 68 66 65 63 59 58 59 60 59 59 59 56 55 52 49 47 40 33 30 28 27 24 25 28 28 28 29 31 35 40 42 41 41 44 44 43 42 41 41 41 41 41 40 38 38 38 37 37 36 35 34 34 34 35 37 42 47 49 50 50 50 51 52 52 52 52 52 51 50 49 45 40 39 41
66 70 76 81 81 83 80 79 80 82 85 86 87 86 85 85 84 86 86 85 81 77 75 69 67 66 63 61 60 60 60 59 59 60 58 56 52 49 48 42 36 31 29 29 27 27 29 29 26 28 30 33 38 39 40 41 42 43 42 41 41 41 40 39 38 36 35 38 39 37 34 34 34 34 35 35 35 36 40 45 47 47 48 47 46 48 50 50 51 51 51 51 49 48 46 44 43
64 65 72 76 76 79 76 75 78 83 84 85 88 90 88 84 84 87 87 86 82 79 76 72 69 66 64 65 65 63 61 59 57 59 57 53 51 49 47 45 41 35 32 32 30 30 31 29 26 27 30 33 37 38 38 40 42 43 41 40 41 40 39 37 35 34 37 42 43 40 37 36 35 37 39 39 37 36 37 40 42 42 43 42 42 45 47 47 47 48 48 48 49 49 50 49 46
61 64 70 72 72 74 74 74 77 79 81 84 86 90 87 85 87 88 90 91 85 79 76 73 70 66 65 67 68 65 61 59 57 56 55 52 50 49 47 46 44 40 39 37 33 31 33 31 25 26 30 32 35 36 37 38 40 41 39 40 41 39 36 33 33 37 42 46 47 45 44 42 41 41 41 41 39 38 37 37 37 38 38 38 39 42 45 46 47 48 48 48 49 50 53 54 52
58 61 66 68 69 70 68 71 76 77 80 84 85 85 83 86 88 88 89 87 83 79 75 73 71 68 67 67 67 64 62 60 57 55 52 51 51 50 48 46 45 45 46 43 36 33 34 31 26 24 28 32 33 34 35 35 38 39 38 38 38 36 34 32 35 43 46 47 47 45 45 45 43 41 40 40 39 39 38 36 35 35 35 35 36 40 46 50 52 54 55 54 53 53 54 56 57
54 57 61 61 62 66 66 68 74 76 79 84 85 83 83 88 88 84 82 79 81 80 73 72 69 67 66 65 65 63 63 61 57 55 53 50 51 51 49 47 47 47 48 47 40 35 34 32 28 27 27 30 32 33 34 33 36 39 38 37 36 38 38 36 40 47 47 46 45 44 43 44 43 42 43 44 43 43 44 43 41 39 38 38 40 43 48 51 53 55 57 57 56 56 56 56 58
51 55 56 55 56 64 68 66 69 73 77 81 84 85 84 88 85 79 80 79 83 81 71 67 64 63 62 62 62 61 62 60 57 56 53 51 50 49 49 48 47 48 47 48 45 37 35 34 33 32 30 30 30 30 31 32 35 39 38 36 39 43 43 41 45 47 45 44 45 44 43 44 45 47 49 49 49 48 48 48 46 45 45 44 45 48 51 51 51 54 56 56 57 56 55 54 56
46 50 51 53 55 61 65 63 65 71 76 79 81 83 82 85 84 81 83 81 80 77 71 67 63 60 59 59 60 60 61 59 57 56 54 53 50 47 48 47 47 48 45 47 47 40 37 37 36 35 33 32 29 29 30 31 35 39 37 37 42 45 42 43 47 47 45 44 46 45 46 49 50 51 53 54 52 50 50 50 48 48 50 51 50 49 51 50 49 50 51 52 53 54 53 53 55
42 45 46 49 50 55 61 61 64 70 75 79 81 81 80 83 84 81 83 81 77 76 72 68 64 62 60 58 59 59 59 59 58 56 56 55 51 48 47 46 45 46 44 44 46 40 38 40 38 35 33 31 29 29 30 31 36 39 38 40 43 42 41 43 48 49 47 46 48 49 50 52 53 55 58 59 54 52 53 52 51 50 52 53 51 49 49 49 49 48 49 49 48 49 51 51 54
41 42 43 45 46 49 57 59 63 69 72 76 78 80 79 81 80 79 81 80 78 75 75 72 66 64 62 58 58 59 59 60 60 58 58 57 53 49 46 46 44 45 43 42 44 41 39 41 39 35 34 33 29 29 31 32 38 41 40 42 43 42 41 43 49 50 48 49 53 54 52 50 53 58 62 60 57 57 57 55 52 50 49 48 48 48 48 47 48 50 52 50 47 48 49 48 52
42 42 39 40 41 45 52 55 59 63 67 71 75 79 80 80 78 79 81 80 78 75 77 75 65 63 62 59 57 58 59 60 60 59 57 56 53 51 47 45 44 43 42 41 42 40 38 40 39 35 37 35 30 31 35 37 40 42 42 43 44 43 41 43 48 49 48 52 56 56 54 52 54 57 57 55 58 61 59 56 54 51 49 49 48 49 48 46 48 50 50 50 49 50 50 48 49
38 40 38 36 37 41 45 51 57 59 61 66 72 79 81 79 78 80 80 79 78 76 77 73 62 61 61 60 58 56 58 58 59 59 57 56 52 50 48 44 43 43 41 41 41 40 39 40 39 38 40 37 33 34 38 42 44 44 45 44 43 44 43 42 44 46 47 52 56 56 57 55 54 53 51 51 54 58 58 56 54 52 51 51 51 48 47 47 47 48 49 48 48 50 51 49 47
30 32 33 32 34 36 37 44 53 55 55 62 69 76 80 78 76 79 78 76 77 76 77 72 63 61 59 59 58 55 56 55 59 60 58 58 53 50 49 44 44 44 41 40 40 41 42 41 40 40 41 40 38 36 40 47 46 45 46 46 45 47 47 42 41 44 46 51 55 56 56 55 53 51 50 49 51 54 56 55 53 50 48 49 49 46 46 48 46 45 46 45 45 47 49 47 46
26 28 27 28 32 33 34 38 44 47 51 59 68 72 75 75 73 73 74 74 76 75 75 71 64 61 58 59 58 57 58 56 59 60 57 58 53 50 51 46 44 45 42 39 39 42 44 43 40 41 41 44 45 41 45 51 47 43 46 48 48 51 49 40 38 42 45 49 52 54 53 52 52 52 51 49 49 52 54 56 54 50 47 46 45 44 44 46 45 42 43 44 45 45 47 47 46
22 25 25 27 30 31 33 36 37 41 47 54 63 69 72 72 70 69 70 72 75 75 74 70 65 62 58 58 58 59 60 57 59 59 55 57 53 51 51 47 45 44 42 40 38 40 44 43 40 39 42 47 49 45 48 51 46 45 47 47 48 51 47 37 36 40 44 47 48 49 49 49 50 50 50 50 52 53 53 56 55 49 46 44 44 45 44 44 45 45 45 47 49 47 48 49 48
17 20 22 25 28 27 30 34 34 38 44 46 54 68 72 71 70 69 70 71 72 73 72 70 67 63 60 59 58 59 60 56 58 58 55 56 54 52 51 47 45 44 43 40 37 38 42 44 40 37 40 47 51 49 48 47 45 48 48 46 48 49 43 37 38 40 41 43 43 44 47 48 49 49 51 53 54 53 51 52 52 47 46 46 47 47 47 47 47 48 48 49 52 50 48 47 46
14 15 17 21 24 26 29 30 31 35 42 42 46 61 68 68 70 71 71 70 69 70 69 70 68 64 62 62 60 60 60 56 55 56 54 56 57 55 52 48 46 45 43 40 36 35 39 43 41 37 39 46 50 48 47 46 45 47 48 48 50 47 41 38 39 40 39 38 38 41 46 47 46 47 52 54 53 54 50 49 49 47 48 51 51 48 49 50 49 51 51 49 51 50 45 44 44
13 12 13 15 18 23 26 27 28 32 39 40 43 55 60 60 67 70 69 69 70 70 68 69 69 66 63 62 62 62 62 56 56 59 56 56 59 59 53 49 47 45 43 40 35 33 37 42 40 37 39 45 47 45 44 45 45 46 47 49 50 45 41 40 39 40 40 37 37 39 42 44 45 47 51 52 52 52 51 50 49 49 49 51 52 50 50 51 53 55 53 51 51 47 43 43 43
12 12 12 11 12 16 21 24 26 28 34 37 40 51 58 60 65 69 68 69 72 71 69 69 68 67 64 61 61 63 62 58 58 59 58 56 59 59 53 49 48 45 42 40 36 32 35 40 40 39 40 43 46 44 43 45 46 46 46 48 47 41 39 40 40 40 39 38 37 37 41 44 45 48 51 51 51 49 49 50 50 49 49 49 51 50 50 51 53 54 53 53 53 50 45 41 40
13 13 12 10 10 11 16 21 25 27 30 33 35 45 55 57 59 66 69 69 71 72 70 69 67 66 65 62 60 61 61 60 58 56 56 56 57 57 53 49 48 45 42 39 36 32 33 38 39 40 40 42 45 44 44 45 46 45 45 45 41 37 38 39 40 40 38 37 37 38 42 44 46 49 50 50 50 49 49 51 51 50 50 53 53 51 49 48 48 51 53 54 55 53 49 43 40
15 14 13 12 10 9 11 16 22 27 29 30 34 43 51 52 53 60 68 68 67 70 70 68 67 65 64 64 62 60 60 62 59 55 54 54 54 55 54 51 48 46 42 39 37 32 31 35 38 39 39 39 42 43 44 44 43 44 43 40 37 36 38 40 42 43 40 39 39 40 42 44 46 49 49 51 52 51 51 52 52 52 54 55 53 49 47 45 44 48 52 55 55 54 52 46 43
16 15 14 13 11 10 9 10 18 27 30 30 33 43 49 50 51 53 61 65 63 66 69 68 67 64 63 64 64 61 58 59 58 56 53 52 54 55 53 52 49 46 43 39 38 33 30 32 34 38 36 34 38 42 42 41 40 42 41 36 35 36 38 41 44 47 46 44 43 41 41 44 46 48 49 53 55 53 53 53 54 55 56 55 50 46 46 46 45 46 49 52 51 50 49 47 45
17 16 14 12 11 13 12 9 17 25 29 31 33 42 48 47 49 50 53 60 62 62 65 65 64 62 61 62 64 63 59 57 58 56 52 51 54 56 54 52 49 47 43 40 38 33 29 29 32 37 36 33 35 39 40 39 37 39 37 32 33 36 41 44 45 48 49 46 44 42 42 44 46 47 48 54 56 53 53 54 56 57 56 56 52 46 44 45 46 47 48 48 48 48 48 47 46
17 17 15 13 12 14 12 10 19 24 26 29 31 40 50 46 45 49 49 54 58 59 60 61 60 60 61 62 63 64 61 60 59 56 54 53 53 54 53 51 48 46 44 40 38 33 29 28 31 35 36 33 33 35 38 37 36 36 34 31 31 35 41 44 45 49 49 45 43 42 43 45 46 47 47 50 52 51 51 52 54 55 54 54 52 47 44 45 47 49 50 49 47 48 47 45 44
16 16 15 14 13 13 11 10 18 22 22 29 30 37 49 47 43 46 45 46 50 54 58 59 58 58 61 61 61 62 62 61 60 56 54 54 52 51 51 50 46 44 44 42 38 35 31 27 28 33 35 33 30 32 34 34 34 35 33 30 31 34 40 44 44 48 48 44 41 41 42 44 45 45 46 47 48 47 47 48 49 50 50 49 49 47 47 47 49 50 50 49 48 49 49 47 46
15 16 16 16 14 13 12 10 14 18 19 25 29 34 47 50 48 49 46 46 48 51 57 59 57 57 58 58 60 63 62 60 58 55 52 54 53 51 50 49 46 43 43 42 39 37 33 28 26 29 34 32 27 27 30 31 32 34 32 29 30 34 39 44 44 46 47 43 40 40 40 42 43 43 45 46 46 45 46 46 46 46 46 45 46 49 50 50 52 52 50 47 47 48 48 47 46
16 16 16 16 14 13 12 12 13 16 17 19 23 34 50 56 55 56 52 49 48 48 54 59 58 59 58 58 60 63 64 62 58 54 51 52 52 51 50 48 45 42 42 41 39 38 35 29 25 26 31 31 27 25 26 27 30 32 32 28 28 32 37 42 43 45 47 42 38 39 38 39 40 40 41 43 44 45 45 46 44 43 45 45 45 47 49 50 51 51 50 49 47 46 44 45 45
17 17 17 15 15 13 12 13 13 17 18 18 19 29 48 55 50 52 54 51 48 47 52 58 59 58 59 59 59 59 61 63 61 55 50 49 49 49 49 47 44 41 41 40 39 39 37 31 26 25 28 29 26 25 23 24 27 30 31 29 28 29 33 39 41 43 47 42 38 37 36 36 38 37 38 40 41 42 44 45 43 42 44 46 44 44 47 49 49 49 49 48 48 46 43 43 44
18 17 17 16 16 15 14 13 14 18 19 19 19 22 39 53 50 50 54 51 48 49 53 57 58 57 57 58 58 58 59 61 61 56 52 50 48 47 47 46 44 42 42 41 40 41 38 32 28 26 26 27 25 24 23 23 24 26 30 32 30 29 30 36 40 42 45 42 38 35 33 34 35 35 36 37 38 41 42 44 43 41 42 43 43 43 46 48 49 50 48 47 48 46 43 41 41
19 16 16 17 17 17 16 15 14 16 15 17 19 18 30 49 52 50 51 49 49 51 52 53 53 53 55 55 57 60 59 59 59 57 55 53 49 47 48 47 45 43 43 43 41 40 39 34 31 28 26 25 24 24 24 23 23 24 27 32 33 31 30 33 35 39 42 41 37 34 32 32 33 33 34 34 36 38 39 40 39 38 38 39 41 42 44 45 47 47 45 45 46 46 44 41 40
19 17 17 16 16 17 18 18 17 16 15 16 18 16 22 37 44 46 48 45 46 47 44 43 42 45 50 53 55 58 59 59 59 57 56 56 52 49 48 48 47 45 44 44 42 40 38 36 34 31 28 25 22 21 22 24 23 23 25 29 32 33 32 31 31 34 37 38 37 36 33 30 30 32 32 32 33 34 35 35 35 35 35 37 40 40 42 45 45 43 42 43 45 46 46 43 42
17 17 17 16 16 16 16 18 18 18 17 18 16 14 18 26 33 43 48 43 38 37 35 34 35 40 46 49 52 55 57 57 58 57 56 57 55 50 49 48 48 48 46 45 45 42 39 37 36 33 30 26 22 20 20 22 22 23 24 26 28 31 32 30 30 32 32 32 35 37 34 29 28 30 31 31 30 31 31 32 32 33 34 36 39 39 41 43 42 40 40 41 44 45 45 46 45
16 16 16 16 16 16 17 17 17 20 22 19 14 13 16 21 25 32 39 35 28 28 30 31 33 38 43 46 48 51 53 54 57 58 56 57 57 52 50 49 49 48 47 47 48 46 42 39 38 35 32 27 23 21 20 20 21 22 22 23 25 27 29 29 29 30 30 29 31 33 33 30 28 28 30 30 29 28 29 30 30 31 33 35 37 38 41 42 39 39 38 39 42 44 44 44 43
16 16 16 17 18 18 17 17 16 20 24 20 14 13 12 17 19 20 24 25 24 25 26 29 32 35 39 44 45 47 50 53 55 57 56 56 57 54 51 51 51 49 49 48 48 47 44 40 39 37 33 29 25 21 21 19 19 20 21 22 25 26 27 27 25 27 29 28 27 29 30 29 27 27 28 28 28 27 27 28 28 29 31 33 34 37 40 41 40 40 38 37 39 42 43 43 42
17 17 18 20 20 19 19 20 19 21 22 18 15 15 14 14 14 14 15 18 24 28 26 25 29 31 36 40 43 46 49 50 51 54 55 54 55 55 53 51 51 51 50 49 47 45 44 41 39 38 34 30 26 23 22 21 18 18 18 20 23 25 24 24 22 23 25 25 25 25 26 26 26 25 25 26 26 25 26 26 26 28 29 30 32 34 37 40 43 43 39 37 37 39 42 43 43
18 18 19 21 21 21 22 22 21 21 20 15 13 16 17 14 13 12 11 12 18 25 28 28 28 30 32 36 40 44 45 45 47 50 52 51 52 54 55 53 52 52 52 49 46 44 43 40 39 38 35 31 28 24 22 22 20 18 17 17 20 22 21 20 20 20 20 22 22 22 21 21 21 22 23 25 25 24 25 24 24 26 27 28 30 32 33 37 41 43 42 38 35 36 38 41 43
20 19 19 20 19 20 22 22 21 22 21 17 15 17 17 15 13 11 10 10 12 18 27 30 29 28 30 33 37 39 42 43 44 45 45 47 51 53 54 55 53 53 53 51 47 44 43 40 37 37 36 32 29 26 23 22 22 20 18 16 16 19 18 17 17 18 18 19 19 19 18 17 17 19 22 23 23 23 23 23 23 24 25 27 28 29 30 32 35 39 39 37 34 34 35 37 41
22 21 20 20 18 17 19 20 19 21 24 24 21 20 18 16 15 12 10 10 10 12 19 25 26 27 28 33 35 35 39 43 44 43 43 46 51 52 53 55 54 54 53 51 48 46 42 40 37 36 36 34 29 26 24 22 22 22 20 17 15 16 17 17 16 16 16 17 17 16 16 16 15 16 18 20 21 21 21 21 21 23 23 24 26 27 28 29 31 33 34 34 34 34 34 35 37
21 22 22 20 18 17 19 20 19 21 26 27 24 23 23 21 19 16 14 12 10 11 15 20 25 26 28 31 32 31 35 39 40 41 42 45 49 52 53 53 55 54 53 51 50 47 43 41 39 36 35 34 31 27 25 23 22 22 21 20 18 15 15 16 16 16 15 14 15 14 15 15 15 16 16 17 18 19 20 21 21 22 22 22 23 24 26 27 28 29 30 31 33 34 34 35 36
19 21 22 21 21 19 20 23 22 24 29 29 25 25 28 29 27 23 20 18 16 16 17 20 26 27 28 31 30 30 32 33 34 36 40 44 47 49 51 52 54 54 53 52 51 49 46 42 40 36 35 34 32 29 26 25 23 22 21 20 19 18 16 15 14 15 15 14 14 13 13 14 14 15 15 15 15 16 18 19 21 22 22 22 22 23 24 25 26 28 30 32 33 34 34 35 35
18 21 21 25 29 29 25 25 24 25 28 27 25 23 24 29 31 28 25 23 22 23 21 22 28 28 29 31 32 30 30 31 33 34 38 44 47 48 49 52 54 55 55 55 53 49 46 43 39 36 33 33 34 32 28 26 25 23 21 20 19 19 18 16 15 14 15 15 14 13 13 13 14 15 15 14 14 15 16 18 20 22 22 22 22 22 24 25 26 29 31 32 32 32 33 33 33
24 23 21 23 30 33 32 29 27 28 28 27 25 24 22 23 26 27 27 26 25 26 24 24 28 29 28 31 32 31 30 31 34 36 39 44 46 47 50 51 53 55 56 56 54 50 46 43 40 36 33 32 34 34 30 28 27 24 23 21 20 19 18 18 17 15 15 15 15 14 14 14 13 14 14 14 14 15 16 17 19 21 22 22 22 23 25 28 29 29 30 30 30 30 30 31 31
32 27 24 26 29 33 35 33 30 31 32 31 29 26 23 18 20 25 29 30 27 26 27 27 27 31 32 30 32 34 33 32 34 36 37 39 42 45 48 49 52 55 56 56 54 51 47 45 41 38 35 32 31 32 31 30 29 27 24 22 20 19 19 19 18 17 16 15 14 14 14 15 14 14 14 14 15 15 16 18 20 20 21 22 22 24 26 28 28 28 28 28 27 27 28 29 30
28 25 24 28 32 35 38 38 36 34 35 37 34 29 24 19 20 25 30 35 32 26 29 31 27 31 34 31 33 38 36 34 34 33 32 34 37 42 45 45 48 54 56 55 54 53 51 48 45 41 38 34 31 31 31 30 30 29 27 23 21 20 18 18 18 17 16 15 14 14 14 14 14 14 14 13 14 14 15 18 21 20 20 20 22 23 24 25 26 26 27 28 27 26 26 28 29